GW2693 Weather Reports


time (UTC)temp
C
wind
direction
speed
KPH
gust
KPH
rain 1hr
cm
rain 24hr
cm
rain mn
cm
humidity
%
barometer
mb
20260502130716 11 38 8.0 9.7 0.00 0.00 0.00 97 1018.6
20260502130214 11 45 4.8 4.8 0.00 0.00 0.00 98 1018.5
20260502123700 10 57 0.0 0.0 0.00 0.00 0.00 99 1018.2
20260502123156 10 45 0.0 0.0 0.00 0.00 0.00 99 1018.1
20260502122653 10 47 0.0 0.0 0.00 0.00 0.00 99 1017.8
20260502122149 10 47 0.0 0.0 0.00 0.00 0.00 99 1017.7
20260502121648 10 46 0.0 0.0 0.00 0.00 0.00 99 1017.6
20260502121145 9 47 0.0 0.0 0.00 0.00 0.00 99 1017.7
20260502120641 9 45 0.0 0.0 0.00 0.00 0.00 99 1017.4
20260502120138 9 72 0.0 0.0 0.00 0.00 0.00 99 1017.5
20260502115636 9 74 0.0 0.0 0.00 0.00 0.00 99 1017.3
20260502115131 9 45 0.0 0.0 0.00 0.00 0.00 99 1017.4
20260502114627 9 46 0.0 0.0 0.00 0.00 0.00 99 1017.4
20260502114125 9 71 0.0 0.0 0.00 0.00 0.00 99 1017.4
20260502113623 10 57 0.0 0.0 0.00 0.00 0.00 99 1017.1
20260502113121 10 71 0.0 0.0 0.00 0.00 0.00 99 1017.1
20260502112618 10 46 0.0 1.6 0.00 0.00 0.00 99 1017.3
20260502112115 10 47 0.0 0.0 0.00 0.00 0.00 99 1017.2
20260502111613 10 27 0.0 0.0 0.00 0.00 0.00 99 1017.0
20260502111110 10 308 0.0 0.0 0.00 0.00 0.00 99 1016.9
20260502110608 10 19 0.0 0.0 0.00 0.00 0.00 99 1016.9
20260502110105 10 36 0.0 0.0 0.00 0.00 0.00 99 1016.8
20260502105603 10 46 0.0 1.6 0.00 0.00 0.00 99 1016.8
20260502105100 10 42 0.0 0.0 0.00 0.00 0.00 99 1016.6
20260502104556 10 47 0.0 0.0 0.00 0.00 0.00 99 1016.4
20260502104054 10 64 0.0 0.0 0.00 0.00 0.00 99 1016.4
20260502103552 10 1 3.2 4.8 0.00 0.00 0.00 99 1016.5
20260502103050 10 358 1.6 1.6 0.00 0.00 0.00 99 1016.2
20260502102545 10 48 0.0 1.6 0.00 0.00 0.00 99 1016.2
20260502102043 10 19 0.0 0.0 0.00 0.00 0.00 99 1015.9
20260502101541 10 19 0.0 1.6 0.00 0.00 0.00 99 1015.9
20260502101039 10 28 3.2 4.8 0.00 0.00 0.00 99 1015.9
20260502100537 10 48 0.0 0.0 0.00 0.00 0.00 99 1015.8
20260502091512 10 72 0.0 0.0 0.00 0.00 0.00 99 1015.5
20260502091009 10 16 1.6 1.6 0.00 0.00 0.00 99 1015.6
20260502090506 10 339 0.0 0.0 0.00 0.00 0.00 99 1015.3
20260502071400 10 35 8.0 9.7 0.00 0.00 0.00 97 1014.9
20260502070858 10 32 3.2 4.8 0.00 0.00 0.00 97 1014.9
20260502070356 10 35 3.2 4.8 0.00 0.00 0.00 96 1014.7
20260502065855 10 41 1.6 3.2 0.00 0.00 0.00 96 1015.1
20260502065352 10 3 3.2 3.2 0.00 0.00 0.00 96 1014.8
20260502064850 10 50 4.8 4.8 0.00 0.00 0.00 96 1014.6
20260502064348 10 45 4.8 4.8 0.00 0.00 0.00 96 1014.8
20260502063845 10 22 3.2 3.2 0.00 0.00 0.00 96 1014.7
20260502063343 10 46 3.2 3.2 0.00 0.00 0.00 96 1015.0
20260502062840 10 39 4.8 6.4 0.00 0.00 0.00 96 1014.9
20260502062337 10 48 3.2 3.2 0.00 0.00 0.00 96 1015.1
20260502061836 10 0 3.2 4.8 0.00 0.00 0.00 96 1015.1
20260502061333 10 59 1.6 1.6 0.00 0.00 0.00 96 1015.2
20260502060829 10 89 1.6 1.6 0.00 0.00 0.00 95 1014.9
20260502060324 10 5 4.8 6.4 0.00 0.00 0.00 96 1014.8
20260502055822 10 48 4.8 4.8 0.00 0.00 0.00 96 1014.6
20260502055320 11 0 3.2 4.8 0.00 0.00 0.00 96 1014.6
20260502054819 11 44 8.0 12.9 0.00 0.00 0.00 96 1014.9
20260502054317 11 53 6.4 6.4 0.00 0.00 0.00 96 1014.8
20260502053814 11 62 6.4 6.4 0.00 0.00 0.00 97 1014.7
20260502053311 11 59 6.4 6.4 0.00 0.00 0.00 97 1014.8
20260502052809 11 30 3.2 4.8 0.00 0.00 0.00 97 1014.7
20260502052307 11 34 6.4 9.7 0.00 0.00 0.00 97 1014.8
20260502051804 11 35 8.0 11.3 0.00 0.00 0.00 98 1014.9
20260502051303 11 28 9.7 11.3 0.00 0.00 0.00 98 1014.7
20260502050758 11 86 6.4 9.7 0.00 0.00 0.00 98 1014.9
20260502050254 12 49 6.4 11.3 0.00 0.00 0.00 99 1014.8
20260502045752 12 15 8.0 11.3 0.00 6.15 6.15 99 1014.7
20260502045249 12 18 1.6 3.2 0.00 6.15 6.15 99 1014.8
20260502044745 12 352 6.4 9.7 0.00 6.15 6.15 99 1014.7
20260502044241 12 52 8.0 11.3 0.00 6.15 6.15 99 1014.8
20260502043739 12 60 4.8 4.8 0.00 6.15 6.15 99 1014.5
20260502043237 12 338 6.4 6.4 0.00 6.15 6.15 99 1014.7
20260502042736 12 40 8.0 11.3 0.00 6.15 6.15 99 1014.6
20260502042233 12 9 1.6 3.2 0.00 6.15 6.15 99 1014.7
20260502041731 12 8 11.3 14.5 0.00 6.15 6.15 99 1014.3
20260502041228 12 54 8.0 12.9 0.00 6.15 6.15 99 1014.6
20260502040725 12 47 12.9 14.5 0.00 6.15 6.15 99 1014.4
20260502040222 12 46 9.7 11.3 0.00 6.15 6.15 99 1014.3
20260502035718 12 357 8.0 20.9 0.00 6.15 6.15 99 1014.2
20260502035215 12 21 1.6 3.2 0.00 6.15 6.15 99 1014.0
20260502034712 12 25 8.0 11.3 0.00 6.15 6.15 99 1014.2
20260502034211 12 39 6.4 6.4 0.00 6.15 6.15 99 1014.0
20260502033708 12 24 1.6 4.8 0.00 6.15 6.15 99 1013.9
20260502033206 12 17 8.0 11.3 0.00 6.15 6.15 99 1013.9
20260502032702 12 32 6.4 6.4 0.00 6.15 6.15 99 1014.0
20260502032158 12 47 9.7 14.5 0.00 6.15 6.15 99 1013.7
20260502031656 12 36 6.4 14.5 0.00 6.15 6.15 99 1013.8
20260502031154 12 50 9.7 12.9 0.00 6.15 6.15 99 1013.8
20260502030652 12 46 9.7 14.5 0.00 6.15 6.15 99 1013.8
20260502030150 12 40 4.8 9.7 0.00 6.15 6.15 99 1013.8
20260502025647 12 61 6.4 6.4 0.00 6.15 6.15 99 1013.6
20260502025145 12 62 3.2 4.8 0.00 6.15 6.15 99 1013.6
20260502024642 12 62 4.8 9.7 0.00 6.15 6.15 99 1013.6
20260502024140 12 38 6.4 9.7 0.00 6.15 6.15 99 1013.5
20260502023638 12 72 4.8 4.8 0.00 6.15 6.15 99 1013.6
20260502023135 12 17 11.3 14.5 0.00 6.15 6.15 99 1013.4
20260502022632 12 11 9.7 11.3 0.00 6.15 6.15 99 1013.4
20260502022129 12 0 6.4 9.7 0.00 6.15 6.15 99 1013.2
20260502021627 12 58 8.0 9.7 0.00 6.15 6.15 99 1013.2
20260502021124 12 359 11.3 12.9 0.00 6.15 6.15 99 1012.9
20260502020621 12 40 6.4 9.7 0.00 6.15 6.15 99 1012.8
20260502020117 12 43 8.0 12.9 0.00 6.15 6.15 99 1013.1
20260502015616 12 13 4.8 6.4 0.00 6.15 6.15 99 1012.9
20260502015112 12 44 9.7 12.9 0.00 6.15 6.15 99 1012.7
20260502014609 12 46 4.8 6.4 0.00 6.15 6.15 99 1012.5
20260502014106 12 59 6.4 9.7 0.00 6.15 6.15 99 1012.4
20260502013601 12 35 6.4 9.7 0.00 6.15 6.15 99 1012.4
20260502013058 12 64 14.5 20.9 0.00 6.15 6.15 99 1012.2
20260502012555 12 37 4.8 11.3 0.00 6.15 6.15 99 1012.3
20260502012053 12 86 8.0 11.3 0.00 6.15 6.15 99 1012.0
20260502011549 12 16 9.7 12.9 0.00 6.15 6.15 99 1012.4
20260502011045 12 53 9.7 12.9 0.00 6.15 6.15 99 1012.1
20260502010543 12 27 9.7 14.5 0.00 6.15 6.15 99 1011.5
20260502010039 12 76 3.2 4.8 0.00 6.15 6.15 99 1011.4
20260502005537 12 54 6.4 6.4 0.00 6.15 6.15 99 1011.5
20260502005035 12 16 9.7 12.9 0.00 6.15 6.15 99 1011.3
20260502004530 12 56 17.7 27.4 0.00 6.15 6.15 99 1011.1
20260502004027 12 29 9.7 12.9 0.00 6.15 6.15 99 1011.0
20260502003525 12 48 6.4 9.7 0.00 6.15 6.15 99 1010.7
20260502003022 12 48 4.8 6.4 0.00 6.15 6.15 99 1010.9
20260502002518 12 47 9.7 14.5 0.00 6.15 6.15 99 1011.1
20260502002016 12 41 11.3 14.5 0.00 6.15 6.15 99 1011.2
20260502001513 12 353 16.1 22.5 0.00 6.15 6.15 99 1011.1
20260502001010 13 32 16.1 20.9 0.00 6.15 6.15 99 1011.1
20260502000509 13 27 8.0 11.3 0.00 6.15 6.15 99 1011.1
20260502000005 13 54 6.4 11.3 0.00 6.15 6.15 99 1011.1
20260501235501 13 41 9.7 12.9 0.00 6.15 6.15 99 1010.8
20260501234955 13 44 12.9 20.9 0.00 6.15 6.15 99 1010.8
20260501234452 13 32 9.7 16.1 0.00 6.15 6.15 99 1010.8
20260501233952 13 33 12.9 16.1 0.00 6.15 6.15 99 1011.0
20260501233449 13 17 9.7 11.3 0.00 6.15 6.15 99 1010.6
20260501232944 13 27 14.5 17.7 0.00 6.15 6.15 99 1010.8
20260501232442 13 55 6.4 9.7 0.00 6.15 6.15 99 1011.0
20260501231939 13 67 16.1 20.9 0.00 6.15 6.15 99 1010.9
20260501231437 13 27 4.8 4.8 0.00 6.15 6.15 99 1010.8
20260501230935 13 38 11.3 14.5 0.00 6.15 6.15 99 1010.4
20260501230434 13 39 6.4 11.3 0.00 6.15 6.15 99 1010.4
20260501225931 13 70 6.4 11.3 0.00 6.15 6.15 99 1010.3
20260501225428 13 32 6.4 6.4 0.00 6.15 6.15 99 1010.4
20260501224924 13 50 14.5 17.7 0.13 6.15 6.15 99 1010.3
20260501224421 13 83 6.4 9.7 0.13 6.15 6.15 99 1009.9
20260501223918 13 52 3.2 4.8 0.30 6.12 6.12 99 1009.7
20260501223414 13 35 8.0 9.7 0.30 6.12 6.12 99 1009.9
20260501222910 13 31 3.2 6.4 0.30 6.10 6.10 99 1010.3
20260501222408 13 42 8.0 9.7 0.18 6.07 6.07 99 1010.2
20260501221904 13 33 12.9 17.7 0.00 6.05 6.05 99 1009.4
20260501221401 13 24 6.4 9.7 0.00 6.05 6.05 99 1009.4
20260501220859 13 342 14.5 17.7 0.00 6.05 6.05 99 1009.6
20260501220356 14 355 14.5 22.5 0.00 6.05 6.05 99 1009.5
20260501215852 14 43 6.4 11.3 0.00 6.05 6.05 99 1009.4
20260501215349 14 52 3.2 4.8 0.00 6.05 6.05 99 1009.2
20260501214845 14 6 14.5 22.5 0.13 6.05 6.05 99 1009.5
20260501214340 14 46 6.4 9.7 0.30 6.05 6.05 99 1009.3
20260501213836 14 92 3.2 11.3 0.48 6.02 6.02 99 1009.0
20260501213333 14 24 6.4 9.7 0.30 5.99 5.99 99 1009.3
20260501212829 15 4 1.6 4.8 0.00 5.94 5.94 99 1008.8
20260501212326 15 25 4.8 6.4 0.00 5.94 5.94 99 1008.7
20260501211823 15 20 4.8 6.4 0.00 5.94 5.94 99 1008.4
20260501211320 15 79 4.8 6.4 0.00 5.94 5.94 99 1008.1
20260501210817 15 53 8.0 12.9 0.00 5.94 5.94 99 1007.5
20260501210314 15 2 11.3 12.9 0.00 5.94 5.94 99 1007.4
20260501205810 15 31 4.8 6.4 0.00 5.94 5.94 99 1007.4
20260501205307 15 25 6.4 6.4 0.00 5.94 5.94 99 1007.6
20260501204804 15 74 9.7 12.9 0.00 5.94 5.94 99 1007.3
20260501204300 15 34 11.3 12.9 0.00 5.94 5.94 99 1007.4
20260501203756 15 17 8.0 11.3 0.00 5.94 5.94 99 1007.1
20260501203254 15 42 14.5 20.9 0.00 5.94 5.94 99 1006.9
20260501202751 15 67 9.7 17.7 0.00 5.94 5.94 99 1007.2
20260501202247 15 93 9.7 11.3 0.00 5.94 5.94 99 1007.5
20260501201744 15 22 11.3 16.1 0.00 5.94 5.94 99 1007.7
20260501201241 15 67 17.7 24.1 0.00 5.94 5.94 99 1007.9
20260501200738 15 54 9.7 16.1 0.00 5.94 5.94 99 1008.0
20260501200235 15 61 9.7 12.9 0.00 5.94 5.94 99 1007.9
20260501195732 15 52 8.0 11.3 0.00 5.94 5.94 99 1008.4
20260501195228 15 42 14.5 22.5 0.00 5.94 5.94 99 1008.1
20260501194725 15 358 12.9 24.1 0.00 5.94 5.94 99 1008.4
20260501194220 15 38 8.0 9.7 0.18 5.94 5.94 99 1008.5
20260501193717 15 55 3.2 6.4 1.37 5.94 5.94 99 1008.9
20260501193216 15 22 8.0 11.3 1.80 5.92 5.92 99 1009.1
20260501192713 14 46 8.0 11.3 1.07 5.77 5.77 99 1009.2
20260501192210 15 51 6.4 11.3 0.66 5.64 5.64 99 1009.0
20260501191707 14 70 1.6 1.6 0.71 5.59 5.59 99 1008.8
20260501191204 14 38 11.3 14.5 0.61 5.54 5.54 99 1008.6
20260501190700 14 26 4.8 4.8 0.71 5.49 5.49 99 1008.6
20260501190155 14 40 1.6 3.2 1.19 5.44 5.44 99 1008.6
20260501185652 15 6 14.5 20.9 1.37 5.36 5.36 99 1008.6
20260501185148 15 265 4.8 6.4 0.89 5.26 5.26 99 1009.0
20260501184644 15 55 0.0 0.0 0.30 5.13 5.13 99 1008.4
20260501184139 15 36 12.9 14.5 0.13 5.11 5.11 99 1008.2
20260501183636 15 354 6.4 12.9 0.30 5.08 5.08 99 1007.9
20260501183132 15 56 3.2 4.8 0.48 5.08 5.08 99 1008.1
20260501182629 15 50 3.2 6.4 0.30 5.03 5.03 99 1008.1
20260501182126 15 3 3.2 14.5 0.13 5.00 5.00 99 1008.4
20260501181623 15 290 3.2 4.8 0.18 4.98 4.98 99 1008.1
20260501181120 15 32 4.8 6.4 0.18 4.98 4.98 99 1007.6
20260501180618 16 88 12.9 17.7 0.00 4.95 4.95 99 1007.8
20260501180114 16 353 6.4 12.9 0.00 4.95 4.95 99 1007.7
20260501175611 16 345 11.3 16.1 0.18 4.95 4.95 99 1007.0
20260501175108 16 66 9.7 12.9 0.30 4.95 4.95 99 1007.2
20260501174604 16 356 3.2 6.4 0.13 4.93 4.93 99 1007.9
20260501174102 16 10 11.3 14.5 0.13 4.93 4.93 99 1007.0
20260501173559 16 34 4.8 4.8 0.00 4.90 4.90 99 1008.0
20260501173056 16 30 1.6 3.2 0.00 4.90 4.90 99 1008.1
20260501172551 16 52 6.4 11.3 0.00 4.90 4.90 99 1007.9
20260501172047 16 29 4.8 6.4 0.00 4.90 4.90 99 1008.1
20260501171544 16 127 8.0 12.9 0.00 4.90 4.90 99 1007.9
20260501171041 16 135 8.0 9.7 0.00 4.90 4.90 99 1007.5
20260501170537 16 26 3.2 4.8 0.00 4.90 4.90 99 1007.5
20260501170034 16 29 6.4 12.9 0.00 4.90 4.90 99 1007.5
20260501165532 16 114 11.3 12.9 0.00 4.90 4.90 99 1007.9
20260501165030 16 74 12.9 17.7 0.00 4.90 4.90 99 1007.7
20260501164527 16 27 9.7 16.1 0.00 4.90 4.90 99 1007.7
20260501164023 16 97 6.4 6.4 0.00 4.90 4.90 99 1008.1
20260501163520 16 53 6.4 6.4 0.00 4.90 4.90 99 1008.0
20260501163017 16 56 3.2 6.4 0.00 4.90 4.90 99 1007.9
20260501162513 15 51 6.4 11.3 0.18 4.90 4.90 99 1008.2
20260501162010 15 60 3.2 6.4 0.18 4.90 4.90 99 1007.6
20260501161507 15 116 1.6 4.8 0.13 4.88 4.88 99 1007.1
20260501161004 15 51 1.6 4.8 0.13 4.88 4.88 99 1007.9
20260501160501 15 49 4.8 9.7 0.18 4.85 4.85 99 1008.3
20260501155958 15 58 3.2 3.2 0.48 4.85 4.85 99 1010.1
20260501155454 15 53 4.8 4.8 1.07 4.83 4.83 99 1010.7
20260501154951 15 39 0.0 0.0 1.37 4.78 4.78 99 1010.1
20260501154449 15 40 0.0 0.0 0.71 4.65 4.65 99 1009.6
20260501153946 15 61 0.0 1.6 0.30 4.55 4.55 99 1010.6
20260501153443 15 25 0.0 0.0 0.18 4.52 4.52 99 1010.4
20260501152938 15 47 3.2 4.8 0.13 4.50 4.50 99 1009.6
20260501152436 15 45 8.0 11.3 0.30 4.50 4.50 99 1009.1
20260501151934 15 41 3.2 3.2 0.18 4.47 4.47 99 1008.9
20260501151431 15 24 4.8 6.4 0.00 4.45 4.45 99 1009.5
20260501150927 15 29 6.4 11.3 0.00 4.45 4.45 99 1009.3
20260501150422 15 45 0.0 0.0 0.13 4.45 4.45 99 1009.4
20260501145919 15 50 4.8 6.4 0.13 4.45 4.45 99 1009.3
20260501145415 15 53 3.2 9.7 0.00 4.42 4.42 99 1009.3
20260501144914 15 35 4.8 4.8 0.18 4.42 4.42 99 1009.1
20260501144409 15 27 6.4 11.3 0.18 4.42 4.42 99 1008.7
20260501143905 15 18 8.0 11.3 0.13 4.39 4.39 99 1010.0
20260501143401 15 29 11.3 17.7 0.13 4.39 4.39 99 1010.0
20260501142858 15 26 9.7 12.9 0.36 4.37 4.37 99 1010.3
20260501142349 15 354 6.4 6.4 0.48 4.37 4.37 99 1010.5
20260501141845 15 35 4.8 4.8 0.48 4.34 4.34 99 1010.2
20260501141341 15 40 6.4 12.9 0.61 4.29 4.29 99 1011.0
20260501140840 15 33 1.6 4.8 0.71 4.27 4.27 99 1010.8
20260501140336 15 18 6.4 6.4 0.61 4.19 4.19 99 1010.6
20260501135832 15 36 1.6 3.2 0.48 4.14 4.14 99 1010.7
20260501135330 16 57 6.4 9.7 0.30 4.09 4.09 99 1010.5
20260501134827 16 61 0.0 0.0 0.13 4.06 4.06 99 1010.6
20260501134323 16 7 3.2 4.8 0.18 4.04 4.04 99 1010.2
20260501133820 16 11 6.4 11.3 0.18 4.04 4.04 99 1010.1
20260501133317 16 52 3.2 3.2 0.18 4.04 4.04 99 1010.3